Hourly Data Report for October 08, 2015

All times are specified in Local Standard Time (LST). Add 1 hour to adjust for Daylight Saving Time where and when it is observed.

CLYDE RIVER A
NUNAVUT

70°29'09.000" N
68°31'01.000" W
26.50 m
2400804
71090
YCY

Download Data

Hourly Data (October 2015)
Hourly Data Report for October 8, 2015
Temp Definition
°C
Dew Point Temp Definition
°C
Rel Hum Definition
%
Wind Dir Definition
10's deg

Wind Spd Definition
km/h
Visibility Definition
km
Stn Press Definition
kPa
Hmdx Definition


Wind Chill Definition


Weather Definition


TIME
00:00 Legend Double Dagger -4.9 -6.6 88 2 5 16.1 99.96   -7 LegendNANA
01:00 Legend Double Dagger -4.1 -6.0 87 30 9 16.1 99.96   -8 LegendNANA
02:00 Legend Double Dagger -3.6 -5.8 85 29 8 16.1 99.96   -7 LegendNANA
03:00 Legend Double Dagger -2.5 -4.8 84 20 11 16.1 99.97   -7 LegendNANA
04:00 Legend Double Dagger -2.6 -5.0 84 LegendMM 4 16.1 99.98   -4 LegendNANA
05:00 Legend Double Dagger -3.3 -6.6 78 16 18 16.1 100.00   -9 LegendNANA
06:00 Legend Double Dagger -2.9 -6.6 76 16 17 16.1 100.01   -8 LegendNANA
07:00 Legend Double Dagger -2.6 -6.5 75 16 22 16.1 100.00   -9 LegendNANA
08:00 Legend Double Dagger -2.3 -6.1 75 16 22 16.1 99.98   -8 LegendNANA
09:00 Legend Double Dagger -2.0 -5.9 75 15 26 16.1 100.01   -9 LegendNANA
10:00 Legend Double Dagger -1.8 -5.3 77 15 22 16.1 100.00   -8 LegendNANA
11:00 Legend Double Dagger -1.6 -5.6 74 15 21 16.1 99.99   -7 LegendNANA
12:00 Legend Double Dagger -1.5 -4.7 79 16 17 16.1 99.99   -7 LegendNANA
13:00 Legend Double Dagger -1.8 -3.5 88 16 21 6.4 100.00   -8 Snow
14:00 Legend Double Dagger -2.0 -3.1 92 17 17 6.4 100.01   -7 Snow
15:00 Legend Double Dagger -2.3 -3.1 94 15 17 3.6 100.02   -8 Snow
16:00 Legend Double Dagger -2.8 -4.1 91 15 13 16.1 100.02   -7 Snow
17:00 Legend Double Dagger -3.3 -4.3 93 15 11 16.1 100.02   -8 Snow
18:00 Legend Double Dagger -3.8 -4.9 92 14 8 16.1 100.02   -7 LegendNANA
19:00 Legend Double Dagger -4.5 -5.3 94 15 9 16.1 100.02   -8 LegendNANA
20:00 Legend Double Dagger -3.5 -4.8 91 16 9 16.1 100.00   -7 LegendNANA
21:00 Legend Double Dagger -6.5 -7.5 93 17 17 16.1 99.99   -13 LegendNANA
22:00 Legend Double Dagger -5.7 -7.1 90 17 15 16.1 99.98   -11 Snow
23:00 Legend Double Dagger -4.0 -5.9 87 17 13 16.1 99.97   -9 LegendNANA

Notes on Data Quality.

Legend

  • E = Estimated
  • M = Missing
  • NA = Not Available
  • ‡ = Partner data that is not subject to review by the National Climate Archives
Date modified: